Location: Boiro
(42.6475°N, 8.8834°W)
Time: 20:51:33
(UTC+02:00)

UKube-1 - Pass Details

Date: 29 April 2024
Orbit: 584 x 591 km, 98.3° (Epoch: 20 May)

Event Time Altitude Azimuth Distance (km) Brightness Sun altitude
Rises 03:04:32 0° 21° (NNE) 2,832 ? -32.3°
Reaches altitude 10° 03:06:50 10° 30° (NNE) 1,924 ? -32.3°
Enters shadow 03:08:30 21° 44° (NE) 1,342 ? -32.2°
